Regional Weather Roundup
Issued by NWS Sterling, VA

Home | Current Version | Previous Version | Text Only | Print | Product List | Glossary On
Versions: 1 2 3 4 5 6 7 8 9 10 11 12 13 14 15 16 17 18 19 20 21 22 23 24 25 26 27 28 29 30 31 32 33 34 35 36 37 38 39 40 41 42 43 44 45 46 47 48 49 50
000
ASUS41 KLWX 011210
RWRLWX

REGIONAL WEATHER ROUNDUP
NATIONAL WEATHER SERVICE BALTIMORE MD/WASHINGTON DC
800 AM EDT SUN MAY 01 2016

Note: "FAIR" indicates few or no clouds below 12,000 feet
with no significant weather and/or obstructions to visibility.
 TC=TEMPERATURE CELSIUS

 * =Non NWS site. Station does not report precipitation (e.g. rain,
    snow, etc.), thunder, or fog.

DCZ001-MDZ009-015-VAZ040>042-051-053>054-011300-
WASHINGTON METRO

CITY           SKY/WX    TMP DP  RH WIND       PRES   REMARKS
WASHINGTON NAT LGT RAIN  53  51  93 SE9       30.13S
DULLES         LGT RAIN  51  50  96 S8        30.11S FOG
ANDREWS AFB    LGT RAIN  52  50  93 SE8       30.12R
FT BELVOIR     LGT RAIN  54  50  87 SE5       30.13R
QUANTICO       RAIN      54  52  93 S13       30.14R FOG
COLLEGE PARK*  CLOUDY    50  50 100 CALM      30.13S
LEESBURG*      LGT RAIN  52  52 100 S9        30.11S
MANASSAS*      LGT RAIN  52  52 100 S6        30.11F
GAITHERSBURG*  CLOUDY    52  46  82 SE8       30.15S

$$

MDZ006>007-011-014-011300-
BALTIMORE METRO

CITY           SKY/WX    TMP DP  RH WIND       PRES   REMARKS
BWI AIRPORT    LGT RAIN  50  49  96 SE8       30.13S FOG
MD SCIENCE CTR   N/A     51  49  92 MISG      30.14F
MARTIN STATE   RAIN      50  50 100 E5        30.17S
ANNAPOLIS      LGT RAIN  52  50  93 MISG      30.13F
FORT MEADE*    CLOUDY    50  48  93 SE3       30.15F

$$

MDZ012-015-019>023-011300-
MARYLAND EASTERN SHORE

CITY           SKY/WX    TMP DP  RH WIND       PRES   REMARKS
OCEAN CITY     LGT RAIN  52  49  89 E6        30.17F
SALISBURY      LGT RAIN  50  50 100 E6        30.16F FOG
CAMBRIDGE*     CLOUDY    50  46  87 CALM      30.15S
EASTON*        LGT RAIN N/A N/A N/A E6          N/A

$$

MDZ017>025-011300-
SOUTHERN MARYLAND

CITY           SKY/WX    TMP DP  RH WIND       PRES   REMARKS
PATUXENT RIVER LGT RAIN  53  50  89 SE13      30.13F
ST INIGOES       N/A    N/A N/A N/A MISG        N/A
LEONARDTOWN*   CLOUDY    52  50  93 SE5       30.14F

$$

MDZ003>005-011300-
NORTH CENTRAL MARYLAND

CITY           SKY/WX    TMP DP  RH WIND       PRES   REMARKS
FREDERICK*     RAIN      52  52 100 S3        30.14R
HAGERSTOWN APT LGT RAIN  52  49  89 S12       30.08R
WESTMINSTER*   HVY RAIN  48  46  93 SE9       30.09F

$$

MDZ501>502-011300-
WESTERN MARYLAND

CITY           SKY/WX    TMP DP  RH WIND       PRES   REMARKS
OAKLAND*       CLOUDY    52  52 100 SW12      30.02R
CUMBERLAND*    CLOUDY    54  54 100 CALM      30.07S

$$

VAZ025>031-011300-
SHENANDOAH VALLEY

CITY           SKY/WX    TMP DP  RH WIND       PRES   REMARKS
WINCHESTER*    LGT RAIN  52  52 100 SE7       30.06F
FRONT ROYAL*   CLOUDY    52  52 100 CALM      30.07R
LURAY*         LGT RAIN  54  54 100 SW3       30.07S
NEW MARKET*    CLOUDY    54  52  95 SW5       30.06R
STAUNTON*      LGT RAIN  55  55 100 S5        30.09S
WAYNESBORO*    CLOUDY    51  50  96 MISG      30.07S

$$

WVZ021-048>050-054>055-011300-
EASTERN WEST VIRGINIA PANHANDLE

CITY           SKY/WX    TMP DP  RH WIND       PRES   REMARKS
MARTINSBURG    LGT RAIN  51  50  96 SE8       30.06R FOG
PETERSBURG*    LGT RAIN  57  55  91 S8        30.03S

$$

VAZ036>039-050-011300-
CENTRAL FOOTHILLS

CITY           SKY/WX    TMP DP  RH WIND       PRES   REMARKS
CHARLOTTESVILL LGT RAIN  53  51  93 S7        30.08F FOG
CULPEPER*      RAIN      53  53  99 S5        30.12S
ORANGE*        LGT RAIN  52  52 100 CALM      30.13S
GORDONSVILLE*  CLOUDY    52  52  99 S5        30.09F
WARRENTON*     RAIN      53  48  84 S5        30.11S

$$

VAZ055>057-011300-
NORTH AND CENTRAL PIEDMONT

CITY           SKY/WX    TMP DP  RH WIND       PRES   REMARKS
FREDERICKSBRG* LGT RAIN  53  53 100 S5        30.13R
STAFFORD*      RAIN      51  50  95 SE5       30.16S

$$

NCZ024-NYZ072-PAZ021-071-VAZ022-071-011300-
OTHER REGIONAL OBSERVATIONS

CITY           SKY/WX    TMP DP  RH WIND       PRES   REMARKS
NEW YORK CITY  CLOUDY    49  36  61 S7        30.24R
PHILADELPHIA   RAIN      47  41  80 E7        30.20S
PITTSBURGH     LGT RAIN  61  58  90 SW8       29.92S FOG
ROANOKE        LGT RAIN  54  53  97 SE5       30.09S FOG
RICHMOND       LGT RAIN  53  52  96 SE7       30.12S
RALEIGH        CLOUDY    60  57  89 SE8       30.10S

$$

ANZ530>537-011300-
MARINE OBSERVATIONS

STATION/POSITION TIME  TEMP    WIND        PRES
                       AIR SEA DIR/SP/G
                 (UTC) (F)     (DEG/KT/KT) (MB)
THOMAS PT LIGHT  1200   51 57  130/ 12/ 14 1021.6F
BALT KEY BRIDGE  1100   51     110/ 12/ 14 1020.5F
COVE POINT       1100   53     180/ 13/ 15 1021.1S
LEWISETTA        1100   53 59  160/  5/  7 1020.3R
SOLOMONS ISLAND  1100   54 59  160/  9/ 11   N/A
PINEY POINT      1100          170/ 12/ 14   N/A

$$




USA.gov is the U.S. government's official web portal to all federal, state and local government web resources and services.